EST,Max TemperatureF,Mean TemperatureF,Min TemperatureF,Max Dew PointF,MeanDew PointF,Min DewpointF,Max Humidity, Mean Humidity, Min Humidity, Max Sea Level PressureIn, Mean Sea Level PressureIn, Min Sea Level PressureIn, Max VisibilityMiles, Mean VisibilityMiles, Min VisibilityMiles, Max Wind SpeedMPH, Mean Wind SpeedMPH, Max Gust SpeedMPH,PrecipitationIn, CloudCover, Events, WindDirDegrees
2013-11-1,71,65,57,60,56,51,99,73,53,29.73,29.52,29.38,10,10,6,23,14,37,0.01,6,Rain,211
2013-11-2,65,54,43,50,43,38,97,70,36,29.71,29.65,29.60,10,10,10,15,5,,0.01,4,Rain,266
2013-11-3,49,42,30,45,33,15,93,70,38,30.42,30.01,29.75,10,9,2,18,9,25,0.06,6,Rain,338
2013-11-4,42,34,25,22,15,11,80,51,28,30.72,30.63,30.45,10,10,10,13,7,,0.00,1,,348
2013-11-5,48,36,25,32,26,18,81,66,40,30.72,30.64,30.51,10,10,10,12,4,,0.00,5,,229
2013-11-6,59,48,38,47,39,32,79,69,49,30.50,30.28,30.00,10,10,10,12,5,17,0.00,7,,201
2013-11-7,63,51,39,56,48,30,92,79,68,29.98,29.77,29.66,10,9,4,14,9,18,0.11,7,Rain,246
2013-11-8,46,40,34,33,25,21,81,57,42,30.06,29.90,29.80,10,10,7,25,10,37,0.00,4,Rain,279
2013-11-9,43,38,34,25,20,18,58,48,38,30.17,30.11,30.04,10,10,10,17,9,23,0.00,6,,245
2013-11-10,48,42,37,40,35,27,100,77,58,30.01,29.84,29.73,10,9,7,13,5,,0.05,7,Rain,257
2013-11-11,50,44,38,30,25,22,64,49,34,30.07,29.96,29.83,10,10,10,18,12,28,0.00,5,,245
2013-11-12,46,36,27,32,19,12,76,52,45,30.16,30.02,29.86,10,9,6,23,13,34,0.00,5,Rain-Snow,290
2013-11-13,35,29,23,12,10,6,61,45,31,30.27,30.21,30.13,10,10,10,15,10,22,0.00,1,,274
2013-11-14,50,39,28,27,20,12,57,47,37,30.11,30.06,30.01,10,10,10,15,8,20,0.00,3,,237
2013-11-15,55,42,28,28,21,16,82,51,23,30.17,30.14,30.09,10,10,10,6,4,,0.00,5,,240
2013-11-16,56,44,31,36,28,19,100,69,24,30.32,30.28,30.17,10,8,0,7,2,,0.00,4,Fog,316
2013-11-17,52,42,32,52,44,32,100,100,93,30.34,30.18,29.87,10,2,0,10,4,,0.12,8,Fog-Rain,66
2013-11-18,64,56,47,61,49,31,100,78,40,29.82,29.58,29.50,10,6,0,20,10,25,0.13,5,Fog-Rain,203
2013-11-19,46,38,30,29,17,11,56,44,34,30.26,29.94,29.63,10,10,10,24,16,34,0.00,2,,296
2013-11-20,41,32,24,14,11,8,59,41,25,30.63,30.50,30.29,10,10,10,18,12,29,0.00,2,,308
2013-11-21,46,34,21,22,15,8,82,51,21,30.65,30.54,30.37,10,10,10,8,4,,0.00,4,,243
2013-11-22,41,38,35,41,37,24,100,93,62,30.35,30.05,29.80,10,5,0,6,3,,0.05,8,Fog-Rain,264
2013-11-23,42,36,29,43,27,12,100,69,30,29.88,29.78,29.74,10,8,0,23,10,32,0.00,4,Fog-Snow,264
2013-11-24,28,23,18,18,2,-6,69,41,28,30.14,29.89,29.74,10,10,10,34,20,47,0.17,2,Snow,294
2013-11-25,30,23,16,8,-6,-14,42,29,14,30.33,30.28,30.16,10,10,10,21,14,28,0.00,3,,260
2013-11-26,35,32,28,35,22,10,100,68,41,30.33,30.26,30.09,10,8,2,10,5,,0.06,8,Rain-Snow,241
2013-11-27,59,48,35,60,48,30,100,98,80,30.04,29.40,29.20,10,5,0,29,13,39,1.67,8,Fog-Rain,208
2013-11-28,36,30,23,28,13,2,75,50,29,30.43,29.99,29.42,10,10,10,21,15,34,0.00,2,,280
2013-11-29,30,23,16,8,4,-3,62,45,24,30.76,30.58,30.43,10,10,10,15,8,20,0.00,2,,291
2013-11-30,31,22,12,20,13,6,84,65,47,30.82,30.68,30.44,10,10,10,8,4,,0.00,4,,220